Terug naar catalogus

DMSP 5D-2 F11 DEB

LostSSO
NORAD 29085·DEBRIS·🇺🇸 United States

Gelanceerd Nov 28, 1991 vanaf Vandenberg Space Force Base

Loading…

Volgende Passages (komende 24 uur)

TLE

VerouderdSource: Space-Track

Epoch: May 5, 2006, 00:11 UTC

1 29085U 91082CE  06125.00785311  .00000053  00000-0  48453-4 0  9999
2 29085  98.7109 143.5969 0013554   2.6199 357.5598 14.16248416 92248

Volg DMSP 5D-2 F11 DEB in realtime met AllMySat

Download on the App Store